Regional Weather Roundup
Issued by NWS Northern Indiana

Home | Current Version | Previous Version | Graphics & Text | Print | Product List | Glossary On
Versions: 1 2 3 4 5 6 7 8 9 10 11 12 13 14 15 16 17 18 19 20 21 22 23 24 25 26 27 28 29 30 31 32 33 34 35 36 37 38 39 40 41 42 43 44 45 46 47 48 49 50
000
ASUS43 KIWX 171510
RWRIWX

KIWX WEATHER ROUNDUP
NATIONAL WEATHER SERVICE NORTHERN INDIANA
1100 AM EDT THU AUG 17 2017

NOTE: "FAIR" INDICATES FEW OR NO CLOUDS BELOW 12,000 FEET WITH NO
SIGNIFICANT WEATHER AND/OR OBSTRUCTIONS TO VISIBILITY.

* THESE STATIONS ARE NOT UNDER NWS QUALITY CONTROL. THEY ALSO MAY NOT
  REPORT WEATHER SUCH AS PRECIPITATION OR FOG.

INZ001>027-171600-
NORTHERN INDIANA

CITY           SKY/WX    TMP DP  RH WIND       PRES   REMARKS
GARY*          PTSUNNY   75  70  83 S6        29.79F
VALPARAISO     CLOUDY    76  72  87 SW9       29.80F
MICHIGAN CITY* CLOUDY    73  73 100 S8        29.80F
LAPORTE*       CLOUDY    74  71  89 SW9       29.81F
KNOX*          CLOUDY    77  70  78 SW12G17   29.81F
SOUTH BEND     CLOUDY    75  71  87 SW15      29.81F
ELKHART*       CLOUDY    75  70  83 SW9       29.81F
GOSHEN         CLOUDY    76  71  85 SW10      29.82F
MONTICELLO*    CLOUDY    79  70  74 SW14      29.82S
LOGANSPORT*    PTSUNNY   73  73 100 SW9       29.84F
ROCHESTER*     CLOUDY    81  73  78 SW9       29.83F
WARSAW*        CLOUDY    73  73 100 W5        29.83F FOG
AUBURN*        LGT RAIN  73  72  94 SE3       29.84F
FORT WAYNE     CLOUDY    79  73  82 S14       29.85F
HUNTINGTON*    CLOUDY    79  76  89 S10       29.84F
PERU/GRISSOM   DRIZZLE   73  73 100 W13       29.83S
MARION*        CLOUDY    79  73  83 S12G18    29.85F FOG

$$
INZ028>050-171600-
CENTRAL INDIANA

CITY           SKY/WX    TMP DP  RH WIND       PRES   REMARKS
LAFAYETTE      CLOUDY    75  72  90 SW10      29.83S
KOKOMO*        LGT RAIN  73  73 100 SW12      29.85F FOG
MUNCIE*        CLOUDY    82  73  74 SW15G22   29.87F
INDIANAPOLIS   PTSUNNY   80  74  81 SW21G28   29.86F

$$
MIZ043>046-050>051-056>058-064>065-071>073-077>080-171600-
SOUTHWEST LOWER MICHIGAN

CITY           SKY/WX    TMP DP  RH WIND       PRES   REMARKS
BATTLE CREEK   LGT RAIN  76  71  85 SW13      29.83F
BENTON HARBOR  CLOUDY    74  69  85 S7        29.78F
COLDWATER*     RAIN      75  73  95 SW7       29.84F
HILLSDALE*     CLOUDY    75  70  83 S9        29.86F
HOLLAND        RAIN      73  70  90 S13       29.79F FOG
GRAND RAPIDS   LGT RAIN  75  72  90 SW12      29.80S
KALAMAZOO      CLOUDY    76  69  79 SW12      29.81F
STURGIS*       LGT RAIN  73  72  96 S8        29.83F
THREE RIVERS*  CLOUDY    77  70  80 SW10G16   29.83F

$$
OHZ001>008-015>018-024>025-171600-
NORTHWEST OHIO

CITY           SKY/WX    TMP DP  RH WIND       PRES   REMARKS
WAUSEON*       PTSUNNY   79  73  83 S10       29.86F
DEFIANCE       PTSUNNY   79  73  82 S8        29.85F
FINDLAY        MOSUNNY   81  71  71 S12       29.88F
TOLEDO EXPRESS CLOUDY    79  74  84 S9        29.86F
TOLEDO METCALF CLOUDY    81  74  79 S15G21    29.87F
LIMA           CLOUDY    82  73  74 SW12G21   29.90F

$$
AND FOR LAKE MICHIGAN COASTAL AND OPEN LAKE BUOY OBSERVATIONS

STATION/POSITION TEMP    WIND        PRES    VSBY  WAVE
                 AIR SEA DIR/SP/G                  HT/PER
                 (F)     (DEG/KT/KT) (MB)    (MI)  (FT/S)
CALUMET HARBOR    74     190/  8/ 13 1007.6F
MICHIGAN CITY     72     190/ 11/ 13   N/A
BURNS HARBOR      74     190/ 11/ 18 1009.1F
SAINT JOSEPH      74     200/  6/  9 1008.8
SOUTH LAKE BUOY   72 72  190/ 17/ 21 1006.6F         4/ 5
4 MI NW BRIDGMAN  73 74  220/ 10/ 14 1008.1          3/ 4
MICHIGAN CITY     73 74  200/ 12/ 16   N/A           2/ 3

$$
&&




USA.gov is the U.S. government's official web portal to all federal, state and local government web resources and services.